STARLINK-36538, 67512

Orbit data source: Space-Track

STARLINK-36538, 67512 is a payload satellite owned by SpaceX/Seattle (US) in LEO that was launched on Sun, 18 Jan 2026 UTC via an FALCON 9 launch vehicle from the Air Force Eastern Test Range (AFETR). Payload-class satellites include a variety of spacecraft equipped with specific instruments for various scientific and technological missions. These include communications satellites like Starlink; space stations such as the ISS; scientific satellites like the Hubble; Earth observation satellites from companies like Planet Labs, Umbra, and HawkEye 360; GPS; miniature CubeSats for education and research; and military/defense satellites.

Loading next visibility...
Identifier
67512, 2026-012V
Orbit
LEO
Country
Flag of USUS
Related business
Manufacturer
SpaceX/Seattle
Mission
Operational Commercial Communications
Bus & Motor
STARLINK V2MO, Unknown motor
Mass
575 kg wet, ~530 kg dry
Launch date (UTC)
2026-01-18 (5 months ago)
Launch vehicle
FALCON 9
Launch site
Air Force Eastern Test Range (AFETR)
Object type
Payload
Rocket body
Debris
Shape & HBR
Box + 2 Pan, 17.7 m
Radar Cross Section
36.964 m², Large (>1 m²)

Expand to show TLE details & history
Last TLE update: 22 hours ago

TLE from 22 hours ago
0 STARLINK-36538
1 67512U 26012V   26170.98357246  .00015221  00000-0  56124-3 0  9994
2 67512  43.0034  96.9346 0001296 267.1474  92.9229 15.27596268 23406
Epoch: 2026-06-19T23:36Z
TLE epoch observation values (Epoch: 2026-06-19T23:36:20.660Z)
Latitude
-0.00005°
Longitude
-165.35625°
Altitude
482.822 km
Speed
7.626 km/s
True Right ascension
06h 27m 44s
True Declination
0° 00' 00"
Sunlit
Object was in daylight at epoch
Visualization orbit readout
Latitude
Unknown
Longitude
Unknown
Altitude
Unknown
Speed
Unknown
Apparent Right ascension
Unknown
Apparent Declination
Unknown
Sunlit
N/A
Visualization observer readout
Local Sidereal Time
08:42:49
Azimuth
Unknown
Elevation
Unknown
Doppler factor
Unknown
Orbital elements
Apogee altitude
485.834 km
Perigee altitude
484.056 km
Semi-major axis
6,863.082 km
Eccentricity
0.00013
Inclination
43.0034°
RAAN
96.9346°
Arg. of periapsis
267.1474°
True anomaly
92.93773°
Mean anomaly
92.9229°
Eccentric anomaly
92.93032°
Mean motion
3.81737 °/min
Orbital period
94.31 mins
BSTAR
0.00056124
Loading maneuver chart data...
Computing Atmospheric mass density...
Loading historical data...
Loading historical data...
Loading historical data...
Loading historical data...
Loading historical data...
Loading historical data...
Loading historical data...

Documentation

Showing up to 5 results
|